Location: Dumpton Point
(51.3500°N, 1.4433°E)
Time: 21:26:50
(UTC+00:00)

Vanguard 2 Rocket - Pass Details

Date: 02 October 2022
Orbit: 555 x 3321 km, 32.9° (Epoch: 05 December)

Event Time Altitude Azimuth Distance (km) Brightness Sun altitude
Rises 00:45:56 0° 243° (WSW) 5,720 - -40.4°
Reaches altitude 10° 00:51:24 10° 230° (SW) 4,150 - -40.1°
Maximum altitude 00:58:18 20° 188° (S) 2,652 - -39.7°
Drops below altitude 10° 01:03:13 10° 142° (SE) 2,811 - -39.3°
Sets 01:06:03 0° 125° (SE) 3,449 - -39.1°
